Torna al catalogo

STARLINK-37062

AttivoComunicazioniVLEO
NORAD 68087·PAYLOAD·🇺🇸 United States

Lanciato Mar 4, 2026 da Vandenberg Space Force Base

Loading…

Prossimi Passaggi (prossime 24 ore)

TLE

AggiornatoSource: CelesTrak SupGP

Epoca: Sep 14, 2026, 21:25 UTC

1 68087C 26042U   26257.89284722  .00012746  00000+0  37682-3 0  2572
2 68087  53.1590  15.6089 0001352  84.6862 258.3449 15.34364045    19

Traccia STARLINK-37062 in tempo reale con AllMySat

Download on the App Store